Valparaiso, FL

8:27 PM CDT on July 23, 2017 (GMT -0500)
Eglin Air Force Base

Weather History for KVPS - May, 2014

Change the Weather History Date:

Tuesday, May 6, 2014

  Actual Average Record
Temperature  
Mean Temperature 69 °F -  
Max Temperature 79 °F 82 °F 90 °F (1952)
Min Temperature 59 °F 56 °F 44 °F (1954)
Cooling Degree Days 4    
Growing Degree Days 19 (Base 50)    
Moisture  
Dew Point 63 °F    
Average Humidity 72    
Maximum Humidity 99    
Minimum Humidity 52    
Precipitation  
Precipitation 0.00 in - - ()
Sea Level Pressure  
Sea Level Pressure 30.03 in    
Wind  
Wind Speed 4 mph (SSW)    
Max Wind Speed 14 mph    
Max Gust Speed -    
Visibility 10 miles    
Events Fog    
Averages and records for this station are not official NWS values.
T = Trace of Precipitation, MM = Missing Value Source: NWS Daily Summary

Daily Weather History Graph

Daily Weather History Graph

Search for Another Location

Airport or City:

Trip Planner

Search our weather history database for the weather conditions in past years. The results will help you decide how hot, cold, wet, or windy it might be!

Date:

Astronomy

May. 06, 2014 Rise Set
Actual Time 5:58 AM CDT 7:27 PM CDT
Civil Twilight 5:32 AM CDT 7:53 PM CDT
Nautical Twilight 5:01 AM CDT 8:24 PM CDT
Astronomical Twilight 4:29 AM CDT 8:56 PM CDT
Moon 12:08 PM CDT (5/6) 12:50 AM CDT (5/6)
Length of Visible Light 14h 20m
Length of Day
13h 29m
Waxing Crescent, 46% of the Moon is Illuminated
May 6
Waxing Crescent
May 6
First Quarter
May 14
Full
May 21
Last Quarter
May 28
New

Hourly Weather History & Observations

Time (CDT) Temp. Dew Point Humidity Pressure Visibility Wind Dir Wind Speed Gust Speed Precip Events Conditions
12:56 AM 68.4 °F 65.1 °F 89% 30.02 in 8.0 mi WSW 1.2 mph - N/A Fog Patches of Fog
1:55 AM 68.2 °F 66.9 °F 96% 30.00 in 10.0 mi Calm Calm - N/A   Clear
2:55 AM 65.5 °F 63.3 °F 93% 30.00 in 10.0 mi North 2.3 mph - N/A   Clear
6:55 AM 59.4 °F 59.2 °F 99% 30.03 in 7.0 mi Calm Calm - N/A   Clear
7:55 AM 69.8 °F 66.0 °F 88% 30.06 in 10.0 mi Calm Calm - N/A   Clear
8:55 AM 74.3 °F 64.2 °F 71% 30.07 in 10.0 mi West 4.6 mph - N/A   Partly Cloudy
8:59 AM 74.3 °F 64.0 °F 70% 30.06 in 10.0 mi West 4.6 mph - N/A   Partly Cloudy
9:55 AM 76.6 °F 64.8 °F 67% 30.06 in 10.0 mi SSW 4.6 mph - N/A   Partly Cloudy
10:59 AM 77.5 °F 63.0 °F 61% 30.06 in 10.0 mi ESE 9.2 mph - N/A   Partly Cloudy
11:55 AM 78.3 °F 60.4 °F 54% 30.06 in 10.0 mi South 12.7 mph - N/A   Partly Cloudy
12:55 PM 79.3 °F 60.1 °F 52% 30.04 in 10.0 mi South 9.2 mph - N/A   Partly Cloudy
1:55 PM 79.5 °F 60.3 °F 52% 30.02 in 10.0 mi South 10.4 mph - N/A   Partly Cloudy
2:55 PM 79.2 °F 60.8 °F 53% 30.01 in 10.0 mi South 13.8 mph - N/A   Partly Cloudy
3:03 PM 78.8 °F 60.8 °F 54% 30.00 in 10.0 mi South 10.4 mph - N/A   Partly Cloudy
3:55 PM 79.0 °F 61.7 °F 55% 30.02 in 10.0 mi South 11.5 mph - N/A   Clear
4:55 PM 77.5 °F 60.3 °F 55% 30.02 in 10.0 mi South 10.4 mph - N/A   Clear
5:55 PM 76.1 °F 64.6 °F 67% 30.00 in 10.0 mi SSW 9.2 mph - N/A   Clear
6:55 PM 74.1 °F 63.5 °F 69% 30.01 in 10.0 mi SW 5.8 mph - N/A   Clear
7:55 PM 71.8 °F 63.3 °F 75% 30.02 in 10.0 mi SSW 6.9 mph - N/A   Clear
8:55 PM 71.4 °F 64.2 °F 78% 30.02 in 10.0 mi South 5.8 mph - N/A   Clear
9:55 PM 71.6 °F 65.3 °F 80% 30.04 in 10.0 mi South 4.6 mph - N/A   Clear
10:55 PM 70.2 °F 65.1 °F 84% 30.04 in 10.0 mi Calm Calm - N/A   Clear
11:55 PM 70.0 °F 66.2 °F 88% 30.04 in 10.0 mi Calm Calm - N/A   Clear